CES5735 ZPPP-ZGGG

Flight info

Callsign CES5735
Flight time 1h 33m
Altitude 29100
Route LXI A599 GYA
Aircraft B738/M-SDE2E3FGHIRWXY/LB1

Departure

Time 2026-05-01 09:02
Airport Kunming Changshui International Airport (ZPPP)

Arrival

Time 2026-05-01 10:36
Airport Guangzhou Baiyun International Airport (ZGGG)
Time Latitude Longitude Altitude Speed Heading
2026-05-01 08:29 25.10615 102.93013 6929 ft 0 kts 253°
2026-05-01 08:46 25.10617 102.93021 6929 ft 2 kts 253°
2026-05-01 08:46 25.10622 102.93037 6929 ft 2 kts 253°
2026-05-01 08:46 25.10626 102.93053 6929 ft 2 kts 253°
2026-05-01 08:46 25.10630 102.93068 6929 ft 2 kts 253°
2026-05-01 08:47 25.10635 102.93085 6929 ft 2 kts 242°
2026-05-01 08:47 25.10645 102.93097 6929 ft 2 kts 211°
2026-05-01 08:47 25.10659 102.93102 6928 ft 2 kts 183°
2026-05-01 08:47 25.10674 102.93100 6928 ft 2 kts 157°
2026-05-01 08:48 25.10688 102.93094 6928 ft 2 kts 164°
2026-05-01 08:48 25.10703 102.93090 6928 ft 2 kts 162°
2026-05-01 08:48 25.10717 102.93085 6928 ft 2 kts 163°
2026-05-01 08:48 25.10732 102.93080 6928 ft 2 kts 162°
2026-05-01 08:49 25.10741 102.93077 6928 ft 0 kts 162°
2026-05-01 08:51 25.10736 102.93078 6927 ft 2 kts 163°
2026-05-01 08:51 25.10716 102.93085 6927 ft 4 kts 163°
2026-05-01 08:51 25.10687 102.93101 6927 ft 4 kts 135°
2026-05-01 08:51 25.10679 102.93149 6927 ft 9 kts 74°
2026-05-01 08:52 25.10729 102.93205 6926 ft 12 kts 38°
2026-05-01 08:52 25.10806 102.93272 6926 ft 16 kts 38°
2026-05-01 08:52 25.10888 102.93343 6926 ft 12 kts 39°
2026-05-01 08:52 25.10945 102.93356 6926 ft 8 kts 334°
2026-05-01 08:53 25.10979 102.93318 6926 ft 7 kts 308°
2026-05-01 08:53 25.11015 102.93267 6927 ft 10 kts 308°
2026-05-01 08:53 25.11064 102.93200 6927 ft 11 kts 308°
2026-05-01 08:53 25.11104 102.93144 6927 ft 8 kts 308°
2026-05-01 08:54 25.11140 102.93093 6927 ft 12 kts 308°
2026-05-01 08:54 25.11201 102.93009 6927 ft 15 kts 308°
2026-05-01 08:54 25.11266 102.92974 6927 ft 10 kts 27°
2026-05-01 08:54 25.11324 102.93025 6927 ft 13 kts 38°
2026-05-01 08:55 25.11413 102.93102 6927 ft 17 kts 38°
2026-05-01 08:55 25.11504 102.93180 6927 ft 15 kts 39°
2026-05-01 08:55 25.11586 102.93253 6927 ft 17 kts 38°
2026-05-01 08:55 25.11694 102.93347 6927 ft 20 kts 38°
2026-05-01 08:56 25.11777 102.93388 6927 ft 12 kts 340°
2026-05-01 08:56 25.11850 102.93357 6927 ft 15 kts 28°
2026-05-01 08:56 25.11941 102.93436 6927 ft 17 kts 39°
2026-05-01 08:56 25.12034 102.93516 6926 ft 17 kts 38°
2026-05-01 08:57 25.12129 102.93599 6926 ft 18 kts 38°
2026-05-01 08:57 25.12226 102.93684 6926 ft 18 kts 38°
2026-05-01 08:57 25.12326 102.93770 6926 ft 18 kts 38°
2026-05-01 08:57 25.12428 102.93859 6926 ft 19 kts 38°
2026-05-01 08:58 25.12531 102.93949 6926 ft 19 kts 38°
2026-05-01 08:58 25.12638 102.94042 6926 ft 19 kts 38°
2026-05-01 08:58 25.12739 102.94130 6925 ft 17 kts 38°
2026-05-01 08:58 25.12828 102.94208 6925 ft 15 kts 38°
2026-05-01 08:59 25.12899 102.94270 6925 ft 8 kts 38°
2026-05-01 08:59 25.12943 102.94279 6925 ft 6 kts 339°
2026-05-01 08:59 25.12970 102.94256 6925 ft 4 kts 309°
2026-05-01 08:59 25.12973 102.94252 6925 ft 0 kts 309°
2026-05-01 09:00 25.12980 102.94242 6925 ft 3 kts 309°
2026-05-01 09:00 25.12993 102.94224 6925 ft 3 kts 309°
2026-05-01 09:00 25.13013 102.94198 6925 ft 5 kts 308°
2026-05-01 09:00 25.13023 102.94169 6925 ft 5 kts 276°
2026-05-01 09:01 25.13012 102.94130 6925 ft 5 kts 234°
2026-05-01 09:01 25.12999 102.94115 6925 ft 0 kts 220°
2026-05-01 09:01 25.12991 102.94108 6925 ft 7 kts 220°
2026-05-01 09:02 25.12839 102.93975 6926 ft 60 kts 218°
2026-05-01 09:02 25.12342 102.93541 6926 ft 121 kts 219°
2026-05-01 09:02 25.11528 102.92840 6937 ft 172 kts 221°
2026-05-01 09:02 25.10587 102.91994 7524 ft 178 kts 220°
2026-05-01 09:03 25.09646 102.91161 8300 ft 177 kts 224°
2026-05-01 09:03 25.08927 102.90042 8832 ft 187 kts 242°
2026-05-01 09:03 25.08229 102.88810 9398 ft 193 kts 234°
2026-05-01 09:03 25.07423 102.87592 9892 ft 203 kts 234°
2026-05-01 09:04 25.06529 102.86305 10266 ft 220 kts 234°
2026-05-01 09:04 25.05570 102.84924 10691 ft 235 kts 235°
2026-05-01 09:04 25.04578 102.83433 11140 ft 248 kts 234°
2026-05-01 09:04 25.03546 102.81882 11744 ft 256 kts 235°
2026-05-01 09:05 25.02485 102.80330 12545 ft 255 kts 232°
2026-05-01 09:05 25.01224 102.78953 13307 ft 259 kts 219°
2026-05-01 09:05 24.99584 102.78078 13974 ft 270 kts 201°
2026-05-01 09:05 24.97707 102.77748 14639 ft 280 kts 188°
2026-05-01 09:06 24.95733 102.77843 15213 ft 295 kts 177°
2026-05-01 09:06 24.93722 102.78667 15601 ft 323 kts 154°
2026-05-01 09:06 24.91988 102.80381 15996 ft 349 kts 132°
2026-05-01 09:06 24.90608 102.82657 16399 ft 366 kts 126°
2026-05-01 09:07 24.89245 102.85111 16753 ft 382 kts 125°
2026-05-01 09:07 24.87838 102.87635 17093 ft 397 kts 125°
2026-05-01 09:07 24.86350 102.90282 17403 ft 413 kts 125°
2026-05-01 09:07 24.84815 102.93006 17667 ft 429 kts 126°
2026-05-01 09:08 24.83214 102.95839 17905 ft 444 kts 125°
2026-05-01 09:08 24.81570 102.98742 18475 ft 449 kts 125°
2026-05-01 09:08 24.79951 103.01687 19146 ft 452 kts 122°
2026-05-01 09:08 24.78497 103.04792 19767 ft 457 kts 118°
2026-05-01 09:09 24.77217 103.08022 20361 ft 462 kts 115°
2026-05-01 09:09 24.76037 103.11309 20952 ft 465 kts 114°
2026-05-01 09:09 24.74889 103.14645 21425 ft 471 kts 113°
2026-05-01 09:09 24.73738 103.18042 22042 ft 472 kts 112°
2026-05-01 09:10 24.72583 103.21460 22531 ft 477 kts 113°
2026-05-01 09:10 24.71415 103.24892 23097 ft 480 kts 112°
2026-05-01 09:10 24.70226 103.28365 23557 ft 485 kts 112°
2026-05-01 09:10 24.69033 103.31828 24120 ft 486 kts 112°
2026-05-01 09:11 24.67830 103.35303 24646 ft 489 kts 112°
2026-05-01 09:11 24.66612 103.38808 25104 ft 493 kts 112°
2026-05-01 09:11 24.65383 103.42334 25580 ft 496 kts 112°
2026-05-01 09:11 24.64141 103.45887 25953 ft 501 kts 111°
2026-05-01 09:12 24.62884 103.49476 26631 ft 498 kts 111°
2026-05-01 09:12 24.61631 103.53052 27310 ft 496 kts 111°
2026-05-01 09:12 24.60396 103.56570 27957 ft 493 kts 111°
2026-05-01 09:12 24.59168 103.60067 28550 ft 492 kts 110°
2026-05-01 09:13 24.57940 103.63560 29073 ft 491 kts 110°
2026-05-01 09:13 24.56705 103.67070 29173 ft 496 kts 111°
2026-05-01 09:13 24.54258 103.74109 29187 ft 493 kts 109°
2026-05-01 09:14 24.52362 103.81325 29182 ft 491 kts 103°
2026-05-01 09:14 24.50832 103.88630 29177 ft 490 kts 102°
2026-05-01 09:15 24.49336 103.95943 29171 ft 492 kts 102°
2026-05-01 09:15 24.47791 104.03286 29164 ft 492 kts 102°
2026-05-01 09:16 24.46215 104.10592 29142 ft 493 kts 102°
2026-05-01 09:17 24.43803 104.21573 29125 ft 494 kts 103°
2026-05-01 09:17 24.41368 104.32578 29092 ft 494 kts 104°
2026-05-01 09:18 24.38923 104.43588 29078 ft 495 kts 104°
2026-05-01 09:19 24.36459 104.54644 29071 ft 496 kts 104°
2026-05-01 09:20 24.33995 104.65653 29065 ft 495 kts 105°
2026-05-01 09:21 24.30712 104.80357 29057 ft 497 kts 105°
2026-05-01 09:21 24.28396 104.91508 29046 ft 498 kts 104°
2026-05-01 09:22 24.25330 105.06435 29021 ft 500 kts 105°
2026-05-01 09:23 24.23021 105.17515 29009 ft 497 kts 105°
2026-05-01 09:24 24.20600 105.28547 29005 ft 496 kts 107°
2026-05-01 09:25 24.16985 105.43188 28984 ft 499 kts 107°
2026-05-01 09:26 24.14279 105.54175 28961 ft 498 kts 107°
2026-05-01 09:26 24.11601 105.65114 28963 ft 499 kts 108°
2026-05-01 09:27 24.09002 105.76232 28979 ft 500 kts 105°
2026-05-01 09:28 24.07542 105.83706 28963 ft 501 kts 104°
2026-05-01 09:28 24.06135 105.91150 28930 ft 500 kts 104°
2026-05-01 09:29 24.03973 106.02308 28886 ft 500 kts 104°
2026-05-01 09:30 24.01761 106.13432 28884 ft 500 kts 105°
2026-05-01 09:30 23.99525 106.24568 28887 ft 499 kts 105°
2026-05-01 09:31 23.98030 106.31983 28896 ft 501 kts 105°
2026-05-01 09:32 23.95768 106.43171 28905 ft 502 kts 105°
2026-05-01 09:32 23.93512 106.54297 28905 ft 501 kts 105°
2026-05-01 09:33 23.92169 106.61773 28916 ft 502 kts 100°
2026-05-01 09:34 23.91277 106.73184 28920 ft 503 kts 95°
2026-05-01 09:34 23.90679 106.84614 28932 ft 502 kts 95°
2026-05-01 09:35 23.89990 106.96006 28936 ft 502 kts 95°
2026-05-01 09:36 23.89489 107.03684 28942 ft 504 kts 96°
2026-05-01 09:36 23.88980 107.11307 28945 ft 502 kts 96°
2026-05-01 09:37 23.88468 107.18919 28950 ft 501 kts 95°
2026-05-01 09:37 23.87689 107.30295 28946 ft 502 kts 96°
2026-05-01 09:38 23.86870 107.41674 28941 ft 502 kts 96°
2026-05-01 09:39 23.86037 107.53016 28954 ft 500 kts 96°
2026-05-01 09:39 23.85481 107.60554 28962 ft 500 kts 96°
2026-05-01 09:40 23.84639 107.71911 28971 ft 499 kts 96°
2026-05-01 09:41 23.84078 107.79438 28967 ft 499 kts 96°
2026-05-01 09:41 23.83290 107.90727 28951 ft 499 kts 94°
2026-05-01 09:42 23.82916 107.98311 28938 ft 500 kts 94°
2026-05-01 09:43 23.82204 108.13468 28935 ft 500 kts 94°
2026-05-01 09:43 23.81817 108.21048 28943 ft 498 kts 94°
2026-05-01 09:44 23.81187 108.32353 28951 ft 499 kts 94°
2026-05-01 09:45 23.80753 108.39932 28957 ft 497 kts 94°
2026-05-01 09:45 23.80103 108.51241 28965 ft 498 kts 94°
2026-05-01 09:46 23.79669 108.58760 28969 ft 496 kts 94°
2026-05-01 09:46 23.79233 108.66257 28973 ft 495 kts 95°
2026-05-01 09:47 23.78789 108.73826 28973 ft 496 kts 95°
2026-05-01 09:47 23.78345 108.81329 28967 ft 495 kts 95°
2026-05-01 09:48 23.77899 108.88817 28964 ft 495 kts 94°
2026-05-01 09:48 23.77449 108.96316 28963 ft 497 kts 95°
2026-05-01 09:49 23.76992 109.03840 28953 ft 495 kts 94°
2026-05-01 09:49 23.76528 109.11337 28955 ft 495 kts 95°
2026-05-01 09:50 23.75679 109.18775 28952 ft 493 kts 101°
2026-05-01 09:50 23.74257 109.26098 28957 ft 491 kts 104°
2026-05-01 09:51 23.72700 109.33354 28950 ft 492 kts 104°
2026-05-01 09:51 23.71153 109.40618 28950 ft 492 kts 104°
2026-05-01 09:52 23.69638 109.47888 28958 ft 492 kts 103°
2026-05-01 09:52 23.68139 109.55191 28961 ft 490 kts 103°
2026-05-01 09:53 23.66659 109.62438 28975 ft 490 kts 103°
2026-05-01 09:53 23.65174 109.69674 28981 ft 488 kts 104°
2026-05-01 09:54 23.63674 109.76937 28987 ft 489 kts 104°
2026-05-01 09:54 23.62175 109.84177 28999 ft 487 kts 104°
2026-05-01 09:55 23.60684 109.91364 29009 ft 487 kts 104°
2026-05-01 09:55 23.59182 109.98586 29012 ft 488 kts 104°
2026-05-01 09:56 23.57676 110.05805 29014 ft 486 kts 104°
2026-05-01 09:56 23.56176 110.12984 29006 ft 488 kts 104°
2026-05-01 09:57 23.54669 110.20182 28992 ft 486 kts 104°
2026-05-01 09:57 23.53162 110.27364 28975 ft 485 kts 104°
2026-05-01 09:58 23.51657 110.34513 28972 ft 485 kts 104°
2026-05-01 09:58 23.50167 110.41658 28965 ft 485 kts 103°
2026-05-01 09:59 23.48716 110.48806 28964 ft 484 kts 103°
2026-05-01 09:59 23.47261 110.56003 28963 ft 484 kts 103°
2026-05-01 10:00 23.45807 110.63156 28962 ft 484 kts 103°
2026-05-01 10:00 23.44343 110.70323 28961 ft 484 kts 104°
2026-05-01 10:01 23.42860 110.77495 28962 ft 483 kts 104°
2026-05-01 10:01 23.41359 110.84610 28964 ft 483 kts 104°
2026-05-01 10:02 23.39847 110.91739 28971 ft 481 kts 104°
2026-05-01 10:02 23.38334 110.98861 28977 ft 483 kts 104°
2026-05-01 10:03 23.36815 111.06000 28988 ft 481 kts 104°
2026-05-01 10:03 23.35307 111.13083 28993 ft 482 kts 104°
2026-05-01 10:04 23.33821 111.20183 28993 ft 481 kts 103°
2026-05-01 10:04 23.32383 111.27337 28992 ft 482 kts 103°
2026-05-01 10:05 23.30956 111.34479 28987 ft 482 kts 103°
2026-05-01 10:05 23.29526 111.41594 28988 ft 482 kts 103°
2026-05-01 10:06 23.28058 111.48704 28983 ft 481 kts 104°
2026-05-01 10:06 23.26531 111.55815 28985 ft 482 kts 104°
2026-05-01 10:07 23.25013 111.62919 28988 ft 481 kts 104°
2026-05-01 10:07 23.23506 111.70012 28892 ft 482 kts 104°
2026-05-01 10:08 23.21995 111.77129 28386 ft 476 kts 104°
2026-05-01 10:08 23.21255 111.80612 28138 ft 472 kts 104°
2026-05-01 10:08 23.20519 111.84076 27890 ft 471 kts 104°
2026-05-01 10:09 23.19793 111.87528 27643 ft 470 kts 104°
2026-05-01 10:09 23.19073 111.90986 27395 ft 469 kts 103°
2026-05-01 10:09 23.18360 111.94422 27147 ft 466 kts 103°
2026-05-01 10:09 23.17651 111.97845 26901 ft 465 kts 103°
2026-05-01 10:10 23.16939 112.01280 26651 ft 463 kts 103°
2026-05-01 10:10 23.16233 112.04672 26404 ft 460 kts 103°
2026-05-01 10:10 23.14826 112.11420 25906 ft 456 kts 103°
2026-05-01 10:11 23.14127 112.14764 25659 ft 456 kts 103°
2026-05-01 10:11 23.13426 112.18108 25412 ft 454 kts 103°
2026-05-01 10:11 23.12728 112.21437 25164 ft 452 kts 103°
2026-05-01 10:11 23.12044 112.24690 24922 ft 451 kts 103°
2026-05-01 10:12 23.11348 112.27999 24676 ft 451 kts 103°
2026-05-01 10:12 23.10650 112.31315 24427 ft 448 kts 103°
2026-05-01 10:12 23.09264 112.37883 23934 ft 445 kts 103°
2026-05-01 10:13 23.08573 112.41150 23687 ft 443 kts 103°
2026-05-01 10:13 23.07888 112.44397 23440 ft 441 kts 103°
2026-05-01 10:13 23.07304 112.47690 23036 ft 437 kts 98°
2026-05-01 10:14 23.06858 112.54208 21899 ft 433 kts 91°
2026-05-01 10:14 23.06836 112.57470 21293 ft 433 kts 89°
2026-05-01 10:14 23.06849 112.60076 20799 ft 433 kts 89°
2026-05-01 10:14 23.06879 112.63340 20174 ft 432 kts 89°
2026-05-01 10:15 23.06909 112.66589 19546 ft 431 kts 90°
2026-05-01 10:15 23.06931 112.69874 18907 ft 431 kts 90°
2026-05-01 10:15 23.06945 112.73125 18255 ft 430 kts 90°
2026-05-01 10:15 23.06945 112.76361 17592 ft 429 kts 90°
2026-05-01 10:16 23.06930 112.79584 16955 ft 428 kts 91°
2026-05-01 10:16 23.06907 112.82810 16312 ft 426 kts 91°
2026-05-01 10:16 23.06852 112.89205 15038 ft 423 kts 91°
2026-05-01 10:17 23.06824 112.92403 14391 ft 421 kts 91°
2026-05-01 10:17 23.06775 112.98706 13109 ft 417 kts 91°
2026-05-01 10:17 23.06751 113.01863 12417 ft 415 kts 91°
2026-05-01 10:18 23.07497 113.07990 11142 ft 410 kts 68°
2026-05-01 10:18 23.09034 113.10524 10761 ft 395 kts 43°
2026-05-01 10:18 23.11232 113.12174 10705 ft 370 kts 22°
2026-05-01 10:19 23.13613 113.13000 10708 ft 352 kts
2026-05-01 10:19 23.16015 113.13536 10711 ft 354 kts
2026-05-01 10:19 23.18418 113.14206 10706 ft 357 kts 16°
2026-05-01 10:20 23.22320 113.17492 10757 ft 365 kts 51°
2026-05-01 10:20 23.23788 113.19763 10760 ft 366 kts 55°
2026-05-01 10:20 23.25193 113.22097 10770 ft 367 kts 56°
2026-05-01 10:20 23.26593 113.24424 10770 ft 366 kts 55°
2026-05-01 10:21 23.28006 113.26719 10771 ft 366 kts 54°
2026-05-01 10:21 23.30902 113.31289 10774 ft 365 kts 54°
2026-05-01 10:21 23.32369 113.33568 10780 ft 367 kts 53°
2026-05-01 10:22 23.35310 113.38120 10779 ft 366 kts 53°
2026-05-01 10:22 23.38546 113.42397 10778 ft 358 kts 37°
2026-05-01 10:23 23.40671 113.43661 10785 ft 339 kts 16°
2026-05-01 10:23 23.45063 113.44807 10780 ft 311 kts
2026-05-01 10:23 23.47153 113.45255 10779 ft 299 kts
2026-05-01 10:24 23.51082 113.46223 10779 ft 277 kts
2026-05-01 10:24 23.54697 113.47201 10663 ft 262 kts
2026-05-01 10:25 23.58273 113.48174 10033 ft 264 kts
2026-05-01 10:25 23.61840 113.49145 9462 ft 262 kts 10°
2026-05-01 10:26 23.63609 113.49626 9178 ft 261 kts 10°
2026-05-01 10:26 23.65375 113.50108 8900 ft 260 kts 11°
2026-05-01 10:26 23.68891 113.50856 8328 ft 254 kts 355°
2026-05-01 10:27 23.71634 113.49048 7826 ft 234 kts 295°
2026-05-01 10:27 23.72603 113.45693 7300 ft 232 kts 281°
2026-05-01 10:28 23.72987 113.43992 7043 ft 231 kts 281°
2026-05-01 10:28 23.73723 113.40580 6531 ft 231 kts 275°
2026-05-01 10:28 23.73619 113.38865 6286 ft 227 kts 248°
2026-05-01 10:29 23.71408 113.36555 5793 ft 225 kts 203°
2026-05-01 10:29 23.69919 113.36049 5538 ft 225 kts 193°
2026-05-01 10:30 23.66908 113.35324 5058 ft 217 kts 193°
2026-05-01 10:30 23.64059 113.34525 4588 ft 205 kts 194°
2026-05-01 10:31 23.61312 113.33771 4043 ft 201 kts 193°
2026-05-01 10:31 23.58629 113.33050 3525 ft 192 kts 193°
2026-05-01 10:32 23.56195 113.32394 3013 ft 168 kts 192°
2026-05-01 10:32 23.55083 113.32093 2796 ft 163 kts 192°
2026-05-01 10:32 23.52882 113.31504 2372 ft 158 kts 192°
2026-05-01 10:33 23.50783 113.30939 1954 ft 155 kts 192°
2026-05-01 10:33 23.48695 113.30380 1541 ft 155 kts 191°
2026-05-01 10:34 23.47651 113.30099 1347 ft 154 kts 192°
2026-05-01 10:34 23.46605 113.29817 1145 ft 154 kts 192°
2026-05-01 10:34 23.45560 113.29537 945 ft 153 kts 192°
2026-05-01 10:35 23.43489 113.28985 554 ft 153 kts 193°
2026-05-01 10:35 23.42455 113.28706 356 ft 151 kts 192°
2026-05-01 10:35 23.41441 113.28439 165 ft 149 kts 192°
2026-05-01 10:35 23.40449 113.28163 48 ft 139 kts 193°
2026-05-01 10:36 23.39368 113.27881 47 ft 26 kts 187°
2026-05-01 10:36 23.39230 113.27876 47 ft 16 kts 179°
2026-05-01 10:36 23.39128 113.27898 47 ft 14 kts 160°
2026-05-01 10:37 23.39037 113.27929 47 ft 13 kts 169°
2026-05-01 10:37 23.38876 113.27925 47 ft 10 kts 192°
2026-05-01 10:37 23.38804 113.27906 47 ft 11 kts 193°
2026-05-01 10:38 23.38728 113.27887 47 ft 10 kts 193°
2026-05-01 10:38 23.38656 113.27869 47 ft 11 kts 193°
2026-05-01 10:38 23.38574 113.27848 47 ft 13 kts 193°
2026-05-01 10:38 23.38482 113.27823 47 ft 15 kts 194°
2026-05-01 10:39 23.38373 113.27794 47 ft 18 kts 194°
2026-05-01 10:39 23.38240 113.27757 47 ft 22 kts 194°
2026-05-01 10:39 23.38111 113.27722 47 ft 11 kts 194°
2026-05-01 10:39 23.38041 113.27729 47 ft 9 kts 131°
2026-05-01 10:40 23.38017 113.27812 47 ft 14 kts 104°
2026-05-01 10:40 23.37989 113.27926 47 ft 16 kts 105°
2026-05-01 10:40 23.37961 113.28040 47 ft 15 kts 104°
2026-05-01 10:40 23.37924 113.28107 47 ft 9 kts 166°
2026-05-01 10:41 23.37859 113.28097 47 ft 10 kts 194°
2026-05-01 10:41 23.37785 113.28076 47 ft 12 kts 194°
2026-05-01 10:41 23.37607 113.28027 47 ft 15 kts 194°
2026-05-01 10:42 23.37505 113.27999 47 ft 15 kts 193°
2026-05-01 10:42 23.37407 113.27973 47 ft 14 kts 195°
2026-05-01 10:42 23.37301 113.27943 47 ft 17 kts 194°
2026-05-01 10:42 23.37171 113.27908 48 ft 21 kts 194°
2026-05-01 10:43 23.37049 113.27875 48 ft 14 kts 189°
2026-05-01 10:43 23.36957 113.27880 47 ft 14 kts 158°
2026-05-01 10:43 23.36891 113.27961 48 ft 15 kts 112°
2026-05-01 10:43 23.36858 113.28082 48 ft 18 kts 105°
2026-05-01 10:44 23.36828 113.28213 48 ft 16 kts 103°
2026-05-01 10:44 23.36827 113.28325 48 ft 15 kts 73°
2026-05-01 10:44 23.36886 113.28407 48 ft 14 kts 32°
2026-05-01 10:44 23.36971 113.28439 48 ft 13 kts 14°
2026-05-01 10:45 23.37068 113.28465 48 ft 15 kts 14°
2026-05-01 10:45 23.37178 113.28494 48 ft 17 kts 14°
2026-05-01 10:45 23.37297 113.28526 48 ft 18 kts 14°
2026-05-01 10:45 23.37422 113.28560 48 ft 19 kts 13°
2026-05-01 10:46 23.37552 113.28594 48 ft 20 kts 14°
2026-05-01 10:46 23.37687 113.28631 48 ft 21 kts 14°
2026-05-01 10:46 23.37826 113.28669 48 ft 20 kts 14°
2026-05-01 10:46 23.37958 113.28703 48 ft 19 kts 14°
2026-05-01 10:47 23.38070 113.28734 48 ft 14 kts 14°
2026-05-01 10:47 23.38155 113.28757 48 ft 10 kts 16°
2026-05-01 10:47 23.38176 113.28813 48 ft 9 kts 103°
2026-05-01 10:47 23.38204 113.28859 48 ft 6 kts 23°
2026-05-01 10:48 23.38237 113.28879 48 ft 5 kts 62°
2026-05-01 10:48 23.38233 113.28935 48 ft 10 kts 104°
2026-05-01 10:48 23.38216 113.29008 48 ft 9 kts 104°
2026-05-01 10:48 23.38201 113.29073 48 ft 8 kts 104°
2026-05-01 10:49 23.38198 113.29102 48 ft 3 kts 72°
2026-05-01 10:49 23.38211 113.29120 48 ft 3 kts 34°
2026-05-01 10:49 23.38231 113.29125 48 ft 3 kts
2026-05-01 10:49 23.38238 113.29127 48 ft 0 kts 12°
2026-05-01 10:50 23.38237 113.29127 48 ft 1 kts 12°
2026-05-01 10:50 23.38238 113.29127 48 ft 0 kts 12°